When you browse on this site, cookies collect data to enhance your experience and personalize the content and advertising you see.
Visit our Privacy Policy to learn more. By continuing to use the site, you agree to this use of cookies and data.
  • Em Portugal
  • Lista de países
  • Para 7 dias
  • Temperatura da água
  • Mapas de satélite
  • Mapa do tempo
  • Widgets de tempo
  • user-avatar
    Iniciar Sessão

    Previsão horária em Ganja

    Hoje, 21 Janeiro, Segunda-feira

    Tempo Temperatura Precipitação Vento Pressão Humidade
    00:00 +3°C° 0 mm 0 m/s 731 mmHg 48%
    01:00 +2°C° 0 mm 0 m/s 731 mmHg 48%
    02:00 +2°C° 0 mm 0 m/s 731 mmHg 48%
    03:00 +2°C° 0 mm 0 m/s 731 mmHg 48%
    04:00 +2°C° 0 mm 0 m/s 731 mmHg 48%
    05:00 +2°C° 0 mm 1 m/s 731 mmHg 47%
    06:00 +2°C° 0 mm 1 m/s 731 mmHg 46%
    07:00 +3°C° 0 mm 1 m/s 731 mmHg 43%
    08:00 +4°C° 0 mm 1 m/s 731 mmHg 40%
    09:00 +5°C° 0 mm 1 m/s 731 mmHg 37%
    10:00 +6°C° 0 mm 1 m/s 730 mmHg 36%
    11:00 +6°C° 0 mm 1 m/s 730 mmHg 35%
    12:00 +7°C° 0 mm 1 m/s 729 mmHg 34%
    13:00 +7°C° 0 mm 1 m/s 729 mmHg 35%
    14:00 +7°C° 0 mm 1 m/s 728 mmHg 35%
    15:00 +8°C° 0 mm 1 m/s 728 mmHg 35%
    16:00 +7°C° 0 mm 1 m/s 728 mmHg 38%
    17:00 +6°C° 0 mm 1 m/s 728 mmHg 42%
    18:00 +4°C° 0 mm 0 m/s 728 mmHg 45%
    19:00 +5°C° 0 mm 1 m/s 728 mmHg 44%
    20:00 +5°C° 0 mm 1 m/s 728 mmHg 44%
    21:00 +4°C° 0 mm 2 m/s 727 mmHg 44%
    22:00 +3°C° 0 mm 2 m/s 727 mmHg 43%
    23:00 +3°C° 0 mm 2 m/s 727 mmHg 43%

    Amanhã, 22 Janeiro, Terça-feira

    Tempo Temperatura Precipitação Vento Pressão Humidade
    00:00 +3°C° 0 mm 2 m/s 727 mmHg 43%
    01:00 +2°C° 0 mm 3 m/s 727 mmHg 42%
    02:00 +2°C° 0 mm 3 m/s 726 mmHg 42%
    03:00 +2°C° 0 mm 3 m/s 726 mmHg 42%
    04:00 +2°C° 0 mm 3 m/s 726 mmHg 41%
    05:00 +2°C° 0 mm 3 m/s 726 mmHg 41%
    06:00 +2°C° 0 mm 3 m/s 725 mmHg 41%
    07:00 +2°C° 0 mm 3 m/s 725 mmHg 39%
    08:00 +3°C° 0 mm 3 m/s 725 mmHg 37%
    09:00 +4°C° 0 mm 3 m/s 725 mmHg 35%
    10:00 +7°C° 0 mm 3 m/s 725 mmHg 32%
    11:00 +8°C° 0 mm 3 m/s 725 mmHg 29%
    12:00 +10°C° 0 mm 3 m/s 725 mmHg 26%
    13:00 +10°C° 0 mm 4 m/s 725 mmHg 27%
    14:00 +10°C° 0 mm 4 m/s 725 mmHg 28%
    15:00 +10°C° 0 mm 4 m/s 725 mmHg 28%
    16:00 +9°C° 0 mm 3 m/s 725 mmHg 32%
    17:00 +8°C° 0 mm 3 m/s 726 mmHg 36%
    18:00 +7°C° 0 mm 2 m/s 726 mmHg 40%
    19:00 +7°C° 0 mm 2 m/s 726 mmHg 41%
    20:00 +6°C° 0 mm 2 m/s 727 mmHg 43%
    21:00 +6°C° 0 mm 2 m/s 727 mmHg 45%
    22:00 +5°C° 0 mm 2 m/s 727 mmHg 46%
    23:00 +5°C° 0 mm 2 m/s 727 mmHg 46%

    Depois de amanhã, 23 Janeiro, Quarta-feira

    Tempo Temperatura Precipitação Vento Pressão Humidade
    00:00 +4°C° 0 mm 2 m/s 728 mmHg 47%
    01:00 +5°C° 0 mm 1 m/s 728 mmHg 48%
    02:00 +5°C° 0 mm 1 m/s 728 mmHg 49%
    03:00 +4°C° 0 mm 1 m/s 728 mmHg 50%
    04:00 +4°C° 0 mm 1 m/s 728 mmHg 51%
    05:00 +3°C° 0 mm 1 m/s 728 mmHg 51%
    06:00 +2°C° 0 mm 0 m/s 728 mmHg 52%
    07:00 +4°C° 0 mm 1 m/s 729 mmHg 49%
    08:00 +5°C° 0 mm 1 m/s 729 mmHg 47%
    09:00 +5°C° 0 mm 1 m/s 729 mmHg 44%
    10:00 +5°C° 0 mm 2 m/s 729 mmHg 45%
    11:00 +6°C° 0 mm 2 m/s 729 mmHg 47%
    12:00 +5°C° 0 mm 3 m/s 729 mmHg 48%
    13:00 +5°C° 0 mm 3 m/s 729 mmHg 51%
    14:00 +5°C° 0 mm 3 m/s 729 mmHg 53%
    15:00 +5°C° 0 mm 3 m/s 728 mmHg 56%
    16:00 +6°C° 0 mm 2 m/s 729 mmHg 62%
    17:00 +5°C° 0 mm 2 m/s 729 mmHg 68%
    18:00 +4°C° 0 mm 2 m/s 730 mmHg 73%
    19:00 +4°C° 0 mm 2 m/s 730 mmHg 77%
    20:00 +5°C° 0 mm 1 m/s 730 mmHg 80%
    21:00 +4°C° 0 mm 1 m/s 731 mmHg 83%
    22:00 +4°C° 0 mm 1 m/s 731 mmHg 84%
    23:00 +4°C° 0 mm 1 m/s 731 mmHg 86%

    24 Janeiro, Quinta-feira

    Tempo Temperatura Precipitação Vento Pressão Humidade
    00:00 +2°C° 0 mm 0 m/s 731 mmHg 87%
    01:00 +3°C° 0 mm 1 m/s 731 mmHg 87%
    02:00 +3°C° 0 mm 1 m/s 731 mmHg 87%
    03:00 +3°C° 0 mm 1 m/s 731 mmHg 87%
    04:00 +3°C° 0 mm 1 m/s 730 mmHg 85%
    05:00 +3°C° 0 mm 1 m/s 730 mmHg 84%
    06:00 +3°C° 0 mm 1 m/s 730 mmHg 83%
    07:00 +3°C° 0 mm 1 m/s 730 mmHg 77%
    08:00 +4°C° 0 mm 1 m/s 730 mmHg 71%
    09:00 +5°C° 0 mm 1 m/s 730 mmHg 66%
    10:00 +6°C° 0 mm 1 m/s 729 mmHg 60%
    11:00 +7°C° 0 mm 1 m/s 729 mmHg 55%
    12:00 +8°C° 0 mm 1 m/s 728 mmHg 50%
    13:00 +8°C° 0 mm 1 m/s 728 mmHg 49%
    14:00 +9°C° 0 mm 1 m/s 727 mmHg 48%
    15:00 +9°C° 0 mm 1 m/s 727 mmHg 47%
    16:00 +8°C° 0 mm 1 m/s 727 mmHg 50%
    17:00 +8°C° 0 mm 1 m/s 727 mmHg 53%
    18:00 +7°C° 0 mm 1 m/s 728 mmHg 56%
    19:00 +7°C° 0 mm 1 m/s 727 mmHg 55%
    20:00 +6°C° 0 mm 1 m/s 727 mmHg 54%
    21:00 +6°C° 0 mm 1 m/s 727 mmHg 52%
    22:00 +5°C° 0 mm 2 m/s 727 mmHg 51%
    23:00 +5°C° 0 mm 2 m/s 727 mmHg 49%

    25 Janeiro, Sexta-feira

    Tempo Temperatura Precipitação Vento Pressão Humidade
    00:00 +5°C° 0 mm 2 m/s 727 mmHg 47%
    01:00 +5°C° 0 mm 2 m/s 726 mmHg 46%
    02:00 +5°C° 0 mm 2 m/s 726 mmHg 45%
    03:00 +4°C° 0 mm 3 m/s 726 mmHg 45%
    04:00 +4°C° 0 mm 3 m/s 726 mmHg 44%
    05:00 +4°C° 0 mm 3 m/s 725 mmHg 44%
    06:00 +4°C° 0 mm 3 m/s 725 mmHg 44%
    07:00 +5°C° 0 mm 3 m/s 725 mmHg 45%
    08:00 +5°C° 0 mm 3 m/s 725 mmHg 46%
    09:00 +7°C° 0 mm 3 m/s 725 mmHg 47%
    10:00 +8°C° 0 mm 3 m/s 725 mmHg 44%
    11:00 +9°C° 0 mm 3 m/s 725 mmHg 41%
    12:00 +10°C° 0 mm 3 m/s 724 mmHg 39%
    13:00 +10°C° 0 mm 3 m/s 724 mmHg 39%
    14:00 +11°C° 0 mm 3 m/s 724 mmHg 39%
    15:00 +11°C° 0 mm 3 m/s 723 mmHg 39%
    16:00 +10°C° 0 mm 3 m/s 724 mmHg 42%
    17:00 +9°C° 0 mm 3 m/s 724 mmHg 46%
    18:00 +8°C° 0 mm 3 m/s 724 mmHg 50%
    19:00 +8°C° 0 mm 3 m/s 724 mmHg 50%
    20:00 +7°C° 0 mm 3 m/s 724 mmHg 49%
    21:00 +7°C° 0 mm 3 m/s 724 mmHg 49%
    22:00 +7°C° 0 mm 3 m/s 724 mmHg 50%
    23:00 +7°C° 0 mm 3 m/s 724 mmHg 50%

    26 Janeiro, Sábado

    Tempo Temperatura Precipitação Vento Pressão Humidade
    00:00 +7°C° 0 mm 3 m/s 724 mmHg 50%
    01:00 +5°C° 0 mm 3 m/s 724 mmHg 50%
    02:00 +5°C° 0 mm 3 m/s 724 mmHg 51%
    03:00 +5°C° 0 mm 3 m/s 724 mmHg 51%
    04:00 +5°C° 0 mm 3 m/s 724 mmHg 51%
    05:00 +5°C° 0 mm 3 m/s 724 mmHg 51%
    06:00 +5°C° 0 mm 3 m/s 724 mmHg 52%
    07:00 +7°C° 0 mm 3 m/s 724 mmHg 50%
    08:00 +7°C° 0 mm 2 m/s 724 mmHg 48%
    09:00 +8°C° 0 mm 2 m/s 724 mmHg 47%
    10:00 +9°C° 0 mm 2 m/s 724 mmHg 44%
    11:00 +10°C° 0 mm 2 m/s 723 mmHg 41%
    12:00 +12°C° 0 mm 2 m/s 723 mmHg 38%
    13:00 +13°C° 0 mm 2 m/s 723 mmHg 38%
    14:00 +13°C° 0 mm 2 m/s 722 mmHg 38%
    15:00 +13°C° 0 mm 2 m/s 722 mmHg 38%
    16:00 +12°C° 0 mm 2 m/s 723 mmHg 40%
    17:00 +11°C° 0 mm 1 m/s 723 mmHg 43%
    18:00 +10°C° 0 mm 1 m/s 723 mmHg 46%
    19:00 +10°C° 0 mm 1 m/s 723 mmHg 46%
    20:00 +8°C° 0 mm 2 m/s 723 mmHg 45%
    21:00 +8°C° 0 mm 2 m/s 724 mmHg 45%
    22:00 +8°C° 0 mm 2 m/s 723 mmHg 45%
    23:00 +7°C° 0 mm 2 m/s 723 mmHg 44%
    Mostrar mais